SIA394 WSSS-LTFM

Flight info

Callsign SIA394
Flight time N/A
Altitude 36000
Route VMR9B VMR B469 VPK M751 VKB A334 HTY W14 PUT L515 OBMOG M770 DABEN DCT DOPID Q26 CEA/N0496F380 R460 LKN R594 DPN A589 ASARI A466 SULOM T400 PS P500 LAKRA G325 REGET N644 DOBAT/N0490F400 N644 LEMOD A909 RODAR N644 ADEKI DCT BADIR DCT LAGAS DCT NOLGA UG261 TBN UM11 CRM UM688 EKSUK UL852 TIVUG UM10 HAKAN UN644 GUMRU UT315 NUGBA
Aircraft A359/H-SDE2E3GHIJ3J4J5LM1ORWXY/LB1D1

Departure

Time N/A
Airport Singapore Changi Airport (WSSS)

Arrival

Time 2026-05-04 14:56
Airport İstanbul Airport (LTFM)
Time Latitude Longitude Altitude Speed Heading
2026-05-04 12:40 40.97661 48.79906 39829 ft 452 kts 281°
2026-05-04 12:41 40.98996 48.71821 39824 ft 451 kts 281°
2026-05-04 12:41 41.00331 48.63712 39822 ft 451 kts 281°
2026-05-04 12:42 41.01654 48.55636 39821 ft 451 kts 281°
2026-05-04 12:42 41.02978 48.47528 39824 ft 450 kts 281°
2026-05-04 12:43 41.04295 48.39424 39818 ft 449 kts 281°
2026-05-04 12:43 41.05603 48.31323 39834 ft 450 kts 280°
2026-05-04 12:44 41.06905 48.23220 39831 ft 450 kts 280°
2026-05-04 12:44 41.08208 48.15089 39833 ft 449 kts 280°
2026-05-04 12:45 41.09494 48.07017 39836 ft 450 kts 280°
2026-05-04 12:45 41.10785 47.98881 39830 ft 450 kts 279°
2026-05-04 12:46 41.12060 47.90790 39839 ft 450 kts 279°
2026-05-04 12:46 41.13332 47.82688 39847 ft 449 kts 280°
2026-05-04 12:47 41.14597 47.74598 39851 ft 450 kts 280°
2026-05-04 12:47 41.15863 47.66471 39854 ft 449 kts 279°
2026-05-04 12:48 41.17115 47.58379 39851 ft 449 kts 280°
2026-05-04 12:48 41.18368 47.50244 39851 ft 449 kts 279°
2026-05-04 12:49 41.19610 47.42151 39851 ft 449 kts 280°
2026-05-04 12:49 41.20850 47.34016 39849 ft 449 kts 279°
2026-05-04 12:50 41.22083 47.25888 39860 ft 450 kts 279°
2026-05-04 12:50 41.23309 47.17752 39860 ft 449 kts 279°
2026-05-04 12:51 41.24530 47.09641 39860 ft 450 kts 279°
2026-05-04 12:51 41.25745 47.01524 39860 ft 448 kts 279°
2026-05-04 12:52 41.26939 46.93500 39854 ft 442 kts 279°
2026-05-04 12:52 41.28119 46.85514 39859 ft 438 kts 279°
2026-05-04 12:53 41.29291 46.77586 39858 ft 435 kts 278°
2026-05-04 12:53 41.30419 46.69643 39852 ft 434 kts 279°
2026-05-04 12:54 41.31528 46.61783 39851 ft 437 kts 278°
2026-05-04 12:54 41.32634 46.53855 39852 ft 435 kts 279°
2026-05-04 12:55 41.33732 46.45953 39855 ft 435 kts 278°
2026-05-04 12:55 41.34831 46.38021 39849 ft 435 kts 279°
2026-05-04 12:56 41.35921 46.30074 39863 ft 436 kts 278°
2026-05-04 12:56 41.37001 46.22186 39860 ft 435 kts 278°
2026-05-04 12:57 41.38076 46.14278 39862 ft 435 kts 278°
2026-05-04 12:57 41.39153 46.06336 39859 ft 435 kts 278°
2026-05-04 12:58 41.40216 45.98459 39858 ft 435 kts 278°
2026-05-04 12:58 41.41286 45.90467 39853 ft 436 kts 278°
2026-05-04 12:59 41.42340 45.82541 39859 ft 435 kts 278°
2026-05-04 12:59 41.43386 45.74637 39863 ft 435 kts 278°
2026-05-04 13:00 41.44432 45.66703 39873 ft 436 kts 278°
2026-05-04 13:00 41.45474 45.58724 39873 ft 435 kts 278°
2026-05-04 13:01 41.46505 45.50791 39879 ft 435 kts 278°
2026-05-04 13:01 41.47536 45.42846 39872 ft 435 kts 278°
2026-05-04 13:02 41.48503 45.34884 39878 ft 435 kts 274°
2026-05-04 13:02 41.49144 45.26854 39890 ft 435 kts 275°
2026-05-04 13:03 41.49798 45.18850 39885 ft 433 kts 275°
2026-05-04 13:03 41.50452 45.10818 39884 ft 434 kts 275°
2026-05-04 13:04 41.51099 45.02824 39886 ft 438 kts 274°
2026-05-04 13:04 41.51746 44.94700 39886 ft 442 kts 274°
2026-05-04 13:05 41.52393 44.86512 39882 ft 444 kts 273°
2026-05-04 13:05 41.53026 44.78381 39883 ft 444 kts 274°
2026-05-04 13:06 41.53664 44.70135 39882 ft 443 kts 274°
2026-05-04 13:06 41.54291 44.61988 39880 ft 445 kts 274°
2026-05-04 13:07 41.54914 44.53795 39877 ft 443 kts 274°
2026-05-04 13:07 41.55529 44.45628 39877 ft 444 kts 274°
2026-05-04 13:08 41.56141 44.37459 39881 ft 444 kts 274°
2026-05-04 13:08 41.56745 44.29222 39889 ft 444 kts 273°
2026-05-04 13:09 41.56894 44.21026 39886 ft 441 kts 262°
2026-05-04 13:09 41.56047 44.12949 39882 ft 441 kts 261°
2026-05-04 13:10 41.55168 44.04812 39871 ft 442 kts 261°
2026-05-04 13:10 41.54281 43.96779 39863 ft 441 kts 261°
2026-05-04 13:11 41.53376 43.88683 39854 ft 441 kts 261°
2026-05-04 13:11 41.52466 43.80581 39853 ft 441 kts 261°
2026-05-04 13:12 41.51548 43.72507 39852 ft 441 kts 261°
2026-05-04 13:12 41.50625 43.64423 39849 ft 442 kts 261°
2026-05-04 13:13 41.49696 43.56337 39851 ft 442 kts 261°
2026-05-04 13:13 41.48768 43.48258 39852 ft 441 kts 261°
2026-05-04 13:14 41.47825 43.40219 39848 ft 442 kts 261°
2026-05-04 13:14 41.46889 43.32208 39872 ft 442 kts 260°
2026-05-04 13:15 41.45932 43.24077 39879 ft 442 kts 260°
2026-05-04 13:15 41.44974 43.16008 39885 ft 441 kts 260°
2026-05-04 13:16 41.44013 43.07950 39876 ft 439 kts 261°
2026-05-04 13:16 41.43049 42.99938 39866 ft 437 kts 261°
2026-05-04 13:17 41.42081 42.91958 39859 ft 436 kts 261°
2026-05-04 13:17 41.41103 42.83947 39859 ft 437 kts 261°
2026-05-04 13:18 41.40126 42.75973 39859 ft 436 kts 261°
2026-05-04 13:18 41.39135 42.67981 39858 ft 437 kts 261°
2026-05-04 13:19 41.38146 42.60030 39858 ft 436 kts 261°
2026-05-04 13:19 41.37149 42.52058 39853 ft 436 kts 261°
2026-05-04 13:20 41.36148 42.44104 39855 ft 437 kts 261°
2026-05-04 13:20 41.35139 42.36137 39872 ft 437 kts 261°
2026-05-04 13:21 41.34121 42.28154 39900 ft 437 kts 260°
2026-05-04 13:21 41.33099 42.20171 39915 ft 436 kts 260°
2026-05-04 13:22 41.32075 42.12217 39910 ft 436 kts 260°
2026-05-04 13:22 41.31045 42.04272 39913 ft 437 kts 260°
2026-05-04 13:23 41.30012 41.96342 39912 ft 436 kts 260°
2026-05-04 13:23 41.28971 41.88389 39907 ft 437 kts 260°
2026-05-04 13:24 41.27930 41.80493 39906 ft 436 kts 260°
2026-05-04 13:24 41.26875 41.72512 39910 ft 436 kts 260°
2026-05-04 13:25 41.25288 41.60616 39905 ft 436 kts 261°
2026-05-04 13:25 41.24223 41.52682 39905 ft 436 kts 260°
2026-05-04 13:26 41.23156 41.44780 39900 ft 437 kts 260°
2026-05-04 13:26 41.22078 41.36844 39902 ft 437 kts 260°
2026-05-04 13:27 41.20997 41.28917 39915 ft 437 kts 259°
2026-05-04 13:27 41.19912 41.21015 39918 ft 437 kts 259°
2026-05-04 13:28 41.18819 41.13099 39914 ft 437 kts 259°
2026-05-04 13:28 41.17715 41.05132 39913 ft 437 kts 259°
2026-05-04 13:29 41.16618 40.97234 39912 ft 439 kts 259°
2026-05-04 13:29 41.15502 40.89253 39905 ft 441 kts 258°
2026-05-04 13:30 41.14370 40.81213 39905 ft 445 kts 258°
2026-05-04 13:30 41.13225 40.73150 39895 ft 446 kts 258°
2026-05-04 13:31 41.12076 40.65080 39878 ft 445 kts 258°
2026-05-04 13:31 41.10915 40.56974 39854 ft 446 kts 258°
2026-05-04 13:32 41.09761 40.48945 39852 ft 447 kts 258°
2026-05-04 13:32 41.08585 40.40807 39849 ft 449 kts 258°
2026-05-04 13:33 41.07400 40.32684 39858 ft 449 kts 257°
2026-05-04 13:33 41.06217 40.24578 39859 ft 450 kts 257°
2026-05-04 13:34 41.05019 40.16430 39855 ft 451 kts 257°
2026-05-04 13:34 41.03818 40.08275 39858 ft 453 kts 257°
2026-05-04 13:35 41.01998 39.96031 39854 ft 452 kts 257°
2026-05-04 13:36 41.00780 39.87891 39852 ft 452 kts 257°
2026-05-04 13:36 40.99758 39.79663 39847 ft 455 kts 264°
2026-05-04 13:37 41.00312 39.71297 39855 ft 461 kts 274°
2026-05-04 13:37 41.01129 39.62902 39852 ft 460 kts 274°
2026-05-04 13:38 41.01931 39.54492 39851 ft 459 kts 273°
2026-05-04 13:38 41.02717 39.46170 39851 ft 458 kts 274°
2026-05-04 13:39 41.03502 39.37790 39849 ft 457 kts 273°
2026-05-04 13:39 41.04276 39.29437 39857 ft 455 kts 273°
2026-05-04 13:40 41.05040 39.21161 39853 ft 454 kts 273°
2026-05-04 13:40 41.05804 39.12854 39854 ft 456 kts 273°
2026-05-04 13:41 41.06576 39.04496 39845 ft 456 kts 273°
2026-05-04 13:41 41.07344 38.96170 39840 ft 460 kts 273°
2026-05-04 13:42 41.08500 38.83461 39831 ft 463 kts 273°
2026-05-04 13:42 41.09271 38.74924 39826 ft 463 kts 273°
2026-05-04 13:43 41.10016 38.66491 39823 ft 462 kts 273°
2026-05-04 13:43 41.10744 38.58025 39823 ft 463 kts 273°
2026-05-04 13:44 41.11462 38.49493 39825 ft 463 kts 273°
2026-05-04 13:44 41.12167 38.41035 39826 ft 462 kts 273°
2026-05-04 13:45 41.12873 38.32491 39828 ft 463 kts 272°
2026-05-04 13:45 41.13571 38.23996 39830 ft 463 kts 272°
2026-05-04 13:46 41.14268 38.15496 39831 ft 462 kts 272°
2026-05-04 13:46 41.14950 38.07057 39829 ft 462 kts 272°
2026-05-04 13:47 41.15632 37.98597 39830 ft 463 kts 273°
2026-05-04 13:47 41.16311 37.90073 39829 ft 462 kts 273°
2026-05-04 13:48 41.17023 37.81630 39830 ft 462 kts 273°
2026-05-04 13:48 41.17743 37.73155 39826 ft 462 kts 273°
2026-05-04 13:49 41.18458 37.64633 39821 ft 461 kts 273°
2026-05-04 13:49 41.18962 37.56176 39827 ft 461 kts 271°
2026-05-04 13:50 41.19593 37.47609 39825 ft 462 kts 272°
2026-05-04 13:50 41.20222 37.39152 39824 ft 462 kts 272°
2026-05-04 13:51 41.20847 37.30644 39834 ft 463 kts 272°
2026-05-04 13:51 41.21473 37.22126 39833 ft 462 kts 272°
2026-05-04 13:52 41.22460 37.09394 39828 ft 464 kts 272°
2026-05-04 13:53 41.23119 37.00833 39829 ft 467 kts 273°
2026-05-04 13:53 41.23772 36.92257 39831 ft 467 kts 273°
2026-05-04 13:54 41.24747 36.79367 39827 ft 468 kts 273°
2026-05-04 13:55 41.25701 36.66502 39825 ft 467 kts 273°
2026-05-04 13:55 41.26644 36.53585 39826 ft 467 kts 273°
2026-05-04 13:56 41.27255 36.44996 39826 ft 468 kts 273°
2026-05-04 13:57 41.28161 36.32071 39829 ft 467 kts 272°
2026-05-04 13:58 41.29346 36.14874 39826 ft 467 kts 272°
2026-05-04 13:58 41.30218 36.01984 39834 ft 467 kts 272°
2026-05-04 13:59 41.30792 35.93373 39819 ft 467 kts 272°
2026-05-04 14:00 41.31641 35.80454 39773 ft 468 kts 272°
2026-05-04 14:00 41.32473 35.67540 39747 ft 467 kts 272°
2026-05-04 14:01 41.33021 35.58971 39745 ft 467 kts 272°
2026-05-04 14:02 41.33830 35.46027 39743 ft 468 kts 272°
2026-05-04 14:02 41.34362 35.37407 39742 ft 468 kts 272°
2026-05-04 14:03 41.34887 35.28762 39746 ft 468 kts 272°
2026-05-04 14:03 41.35404 35.20206 39747 ft 467 kts 272°
2026-05-04 14:04 41.36169 35.07253 39751 ft 467 kts 272°
2026-05-04 14:04 41.36673 34.98640 39751 ft 468 kts 272°
2026-05-04 14:05 41.37417 34.85695 39744 ft 468 kts 271°
2026-05-04 14:06 41.37907 34.77003 39748 ft 469 kts 271°
2026-05-04 14:06 41.38388 34.68350 39770 ft 469 kts 271°
2026-05-04 14:07 41.38864 34.59664 39787 ft 468 kts 272°
2026-05-04 14:07 41.39332 34.51054 39805 ft 469 kts 271°
2026-05-04 14:08 41.39797 34.42328 39796 ft 468 kts 271°
2026-05-04 14:08 41.40424 34.33701 39794 ft 472 kts 278°
2026-05-04 14:09 41.43498 34.21170 39804 ft 475 kts 285°
2026-05-04 14:10 41.46728 34.08664 39804 ft 476 kts 285°
2026-05-04 14:10 41.48880 34.00309 39802 ft 477 kts 285°
2026-05-04 14:11 41.51030 33.91929 39804 ft 476 kts 285°
2026-05-04 14:11 41.54223 33.79431 39800 ft 476 kts 285°
2026-05-04 14:12 41.56345 33.71092 39803 ft 475 kts 285°
2026-05-04 14:13 41.59521 33.58548 39800 ft 475 kts 285°
2026-05-04 14:13 41.61640 33.50161 39903 ft 476 kts 285°
2026-05-04 14:14 41.63753 33.41745 39906 ft 475 kts 285°
2026-05-04 14:14 41.66898 33.29168 39916 ft 475 kts 285°
2026-05-04 14:15 41.71065 33.12401 39916 ft 476 kts 284°
2026-05-04 14:16 41.73233 32.99542 39920 ft 468 kts 269°
2026-05-04 14:17 41.73152 32.86421 39916 ft 471 kts 267°
2026-05-04 14:18 41.73000 32.73414 39904 ft 457 kts 267°
2026-05-04 14:19 41.72758 32.56344 39909 ft 458 kts 267°
2026-05-04 14:19 41.72628 32.47804 39910 ft 458 kts 267°
2026-05-04 14:20 41.72492 32.39263 39912 ft 459 kts 267°
2026-05-04 14:20 41.72270 32.30744 39913 ft 457 kts 262°
2026-05-04 14:21 41.70238 32.18267 39914 ft 456 kts 255°
2026-05-04 14:21 41.68754 32.09992 39914 ft 456 kts 255°
2026-05-04 14:22 41.67262 32.01757 39915 ft 456 kts 255°
2026-05-04 14:22 41.65755 31.93491 39916 ft 456 kts 255°
2026-05-04 14:23 41.63488 31.81124 39910 ft 455 kts 255°
2026-05-04 14:24 41.61970 31.72891 39912 ft 456 kts 255°
2026-05-04 14:24 41.60436 31.64598 39911 ft 456 kts 255°
2026-05-04 14:25 41.58915 31.56427 39891 ft 444 kts 255°
2026-05-04 14:25 41.57480 31.48729 39879 ft 409 kts 255°
2026-05-04 14:25 41.56807 31.45144 39879 ft 393 kts 255°
2026-05-04 14:26 41.55490 31.38116 39915 ft 391 kts 256°
2026-05-04 14:26 41.55165 31.30812 39932 ft 399 kts 273°
2026-05-04 14:27 41.55647 31.23372 39921 ft 405 kts 272°
2026-05-04 14:27 41.56127 31.15839 39919 ft 412 kts 272°
2026-05-04 14:28 41.56615 31.08120 39928 ft 419 kts 272°
2026-05-04 14:28 41.57104 31.00302 39934 ft 426 kts 272°
2026-05-04 14:29 41.58076 30.84638 39945 ft 403 kts 271°
2026-05-04 14:30 41.58525 30.77203 40013 ft 403 kts 271°
2026-05-04 14:31 41.59174 30.65949 40050 ft 410 kts 270°
2026-05-04 14:32 41.59765 30.50483 39584 ft 437 kts 272°
2026-05-04 14:32 41.60074 30.46358 39105 ft 451 kts 271°
2026-05-04 14:32 41.60154 30.42128 38783 ft 463 kts 269°
2026-05-04 14:32 41.60274 30.37803 38423 ft 468 kts 272°
2026-05-04 14:33 41.60740 30.33516 38053 ft 471 kts 279°
2026-05-04 14:33 41.61664 30.29309 37691 ft 474 kts 287°
2026-05-04 14:33 41.63050 30.25343 37329 ft 477 kts 296°
2026-05-04 14:33 41.64908 30.21664 36968 ft 482 kts 305°
2026-05-04 14:34 41.67200 30.18365 36604 ft 486 kts 313°
2026-05-04 14:34 41.69662 30.15227 36239 ft 485 kts 309°
2026-05-04 14:34 41.71752 30.11750 35874 ft 480 kts 300°
2026-05-04 14:34 41.73403 30.07890 35500 ft 469 kts 291°
2026-05-04 14:35 41.74481 30.04036 35081 ft 438 kts 280°
2026-05-04 14:35 41.74894 30.00011 34725 ft 431 kts 270°
2026-05-04 14:35 41.74798 29.96007 34361 ft 429 kts 261°
2026-05-04 14:35 41.74193 29.92137 34005 ft 428 kts 251°
2026-05-04 14:36 41.73090 29.88456 33644 ft 429 kts 242°
2026-05-04 14:36 41.71500 29.85046 33279 ft 430 kts 232°
2026-05-04 14:36 41.69529 29.82111 32917 ft 430 kts 223°
2026-05-04 14:36 41.67205 29.79570 32537 ft 431 kts 220°
2026-05-04 14:37 41.65051 29.76758 32169 ft 433 kts 229°
2026-05-04 14:37 41.63298 29.73469 31803 ft 436 kts 238°
2026-05-04 14:37 41.61995 29.69837 31439 ft 440 kts 247°
2026-05-04 14:37 41.61080 29.65894 31070 ft 442 kts 250°
2026-05-04 14:38 41.60071 29.62045 30703 ft 443 kts 248°
2026-05-04 14:38 41.59012 29.58182 30333 ft 444 kts 245°
2026-05-04 14:38 41.57418 29.54670 29947 ft 441 kts 226°
2026-05-04 14:38 41.55085 29.52042 29600 ft 441 kts 215°
2026-05-04 14:39 41.52542 29.49793 29240 ft 442 kts 212°
2026-05-04 14:39 41.49909 29.47656 28865 ft 443 kts 210°
2026-05-04 14:39 41.47294 29.45576 28316 ft 446 kts 210°
2026-05-04 14:40 41.42033 29.41358 26970 ft 418 kts 210°
2026-05-04 14:40 41.39557 29.39373 26388 ft 414 kts 210°
2026-05-04 14:40 41.37109 29.37417 25762 ft 412 kts 210°
2026-05-04 14:40 41.34686 29.35480 25140 ft 410 kts 209°
2026-05-04 14:41 41.32246 29.33531 24509 ft 407 kts 208°
2026-05-04 14:41 41.29832 29.31605 23882 ft 405 kts 208°
2026-05-04 14:41 41.25039 29.27782 22370 ft 384 kts 208°
2026-05-04 14:42 41.20565 29.24224 20898 ft 380 kts 208°
2026-05-04 14:42 41.18323 29.22440 20088 ft 362 kts 208°
2026-05-04 14:42 41.16289 29.20816 19262 ft 325 kts 207°
2026-05-04 14:43 41.14374 29.19299 18515 ft 316 kts 207°
2026-05-04 14:43 41.12495 29.17815 17777 ft 315 kts 207°
2026-05-04 14:43 41.10594 29.16309 17009 ft 312 kts 207°
2026-05-04 14:43 41.08802 29.14886 15974 ft 295 kts 207°
2026-05-04 14:44 41.07114 29.13550 14966 ft 282 kts 207°
2026-05-04 14:44 41.05459 29.12242 13954 ft 278 kts 207°
2026-05-04 14:44 41.03821 29.10949 12964 ft 275 kts 207°
2026-05-04 14:44 41.02198 29.09668 12214 ft 274 kts 207°
2026-05-04 14:45 41.00625 29.08422 11464 ft 265 kts 207°
2026-05-04 14:45 40.98972 29.07123 10820 ft 287 kts 207°
2026-05-04 14:45 40.97239 29.05754 10179 ft 285 kts 208°
2026-05-04 14:45 40.95566 29.04430 9537 ft 278 kts 207°
2026-05-04 14:46 40.93902 29.03118 8939 ft 282 kts 209°
2026-05-04 14:46 40.92498 29.01493 8244 ft 262 kts 233°
2026-05-04 14:46 40.91843 28.99289 7680 ft 269 kts 261°
2026-05-04 14:46 40.91776 28.96785 7097 ft 279 kts 271°
2026-05-04 14:47 40.91862 28.94261 6464 ft 276 kts 274°
2026-05-04 14:47 40.92014 28.91838 5810 ft 248 kts 275°
2026-05-04 14:47 40.92173 28.89675 5153 ft 226 kts 276°
2026-05-04 14:47 40.92323 28.87750 4897 ft 197 kts 277°
2026-05-04 14:48 40.92471 28.85985 4942 ft 197 kts 277°
2026-05-04 14:48 40.92629 28.84130 4955 ft 205 kts 277°
2026-05-04 14:48 40.92790 28.82239 4942 ft 207 kts 277°
2026-05-04 14:48 40.93085 28.80368 4942 ft 207 kts 296°
2026-05-04 14:49 40.94046 28.78980 4965 ft 210 kts 326°
2026-05-04 14:49 40.95276 28.77991 4947 ft 209 kts 325°
2026-05-04 14:49 40.96491 28.76946 4945 ft 210 kts 328°
2026-05-04 14:49 40.97851 28.76336 4972 ft 219 kts 354°
2026-05-04 14:50 40.99371 28.76329 4949 ft 214 kts 356°
2026-05-04 14:50 41.00850 28.76249 4934 ft 210 kts 355°
2026-05-04 14:50 41.02272 28.76133 4935 ft 200 kts
2026-05-04 14:50 41.03642 28.76109 4745 ft 196 kts
2026-05-04 14:51 41.05009 28.76089 4504 ft 194 kts
2026-05-04 14:51 41.06345 28.76062 4262 ft 193 kts
2026-05-04 14:51 41.07682 28.76035 4014 ft 192 kts
2026-05-04 14:51 41.09018 28.76007 3761 ft 192 kts
2026-05-04 14:52 41.10353 28.75980 3504 ft 191 kts
2026-05-04 14:52 41.11665 28.75953 3245 ft 187 kts
2026-05-04 14:52 41.12936 28.75926 3021 ft 175 kts
2026-05-04 14:52 41.14091 28.75905 2815 ft 160 kts
2026-05-04 14:53 41.15170 28.75889 2555 ft 149 kts
2026-05-04 14:53 41.16158 28.75872 2339 ft 136 kts 360°
2026-05-04 14:53 41.17081 28.75854 2156 ft 129 kts 360°
2026-05-04 14:53 41.17970 28.75837 1994 ft 130 kts 359°
2026-05-04 14:54 41.18874 28.75820 1820 ft 130 kts 359°
2026-05-04 14:54 41.19784 28.75802 1641 ft 130 kts 359°
2026-05-04 14:54 41.20688 28.75785 1462 ft 130 kts 359°
2026-05-04 14:54 41.21592 28.75767 1284 ft 130 kts 359°
2026-05-04 14:55 41.22485 28.75749 1108 ft 130 kts 358°
2026-05-04 14:55 41.23391 28.75731 931 ft 129 kts 358°
2026-05-04 14:55 41.24302 28.75713 722 ft 129 kts 358°
2026-05-04 14:55 41.25187 28.75695 536 ft 126 kts 358°
2026-05-04 14:56 41.26051 28.75677 382 ft 127 kts 358°
2026-05-04 14:56 41.26898 28.75660 345 ft 109 kts 358°
2026-05-04 14:56 41.27431 28.75645 342 ft 48 kts 359°
2026-05-04 14:56 41.27626 28.75641 342 ft 0 kts 359°
2026-05-04 14:57 41.27690 28.75640 342 ft 20 kts 359°
2026-05-04 14:57 41.27898 28.75633 342 ft 36 kts 353°
2026-05-04 14:57 41.28104 28.75487 342 ft 28 kts 307°
2026-05-04 14:57 41.28048 28.75345 342 ft 20 kts 185°
2026-05-04 14:58 41.27905 28.75349 342 ft 20 kts 179°
2026-05-04 14:58 41.27766 28.75352 342 ft 19 kts 179°
2026-05-04 14:58 41.27630 28.75356 342 ft 19 kts 179°
2026-05-04 14:58 41.27497 28.75359 342 ft 18 kts 180°
2026-05-04 14:59 41.27365 28.75360 342 ft 18 kts 181°